Weather History for Evanston, WY

Change the Weather History Date:

Monday, November 25, 2013

  Actual Average Record
Temperature  
Mean Temperature 32 °F 25 °F  
Max Temperature 43 °F 33 °F 52 °F (2008)
Min Temperature 21 °F 17 °F -8 °F (2010)
Degree Days  
Heating Degree Days 33 40  
Month to date heating degree days 774 854  
Since 1 July heating degree days 1756 1907  
Cooling Degree Days 0 0  
Month to date cooling degree days 0 0  
Year to date cooling degree days 348 162  
Moisture  
Dew Point 17 °F    
Average Humidity 54    
Maximum Humidity 77    
Minimum Humidity 30    
Precipitation  
Precipitation 0.00 in 0.02 in 0.09 in (2001)
Month to date precipitation 0.18 0.94  
Year to date precipitation 5.20 11.45  
Sea Level Pressure  
Sea Level Pressure 30.35 in    
Wind  
Wind Speed 6 mph (SW)    
Max Wind Speed 9 mph    
Max Gust Speed -    
Visibility 10 miles    
Events      
T = Trace of Precipitation, MM = Missing Value Source: NWS Daily Summary

Daily Weather History Graph

Daily Weather History Graph

Search for Another Location

Airport:

Trip Planner

Search our weather history database for the weather conditions in past years. The results will help you decide how hot, cold, wet, or windy it might be!

Date:

Astronomy

Nov. 25, 2013 Rise Set
Actual Time 7:24 AM MST 4:57 PM MST
Civil Twilight 6:53 AM MST 5:28 PM MST
Nautical Twilight 6:19 AM MST 6:02 PM MST
Astronomical Twilight 5:46 AM MST 6:35 PM MST
Moon No Moon Rise 12:40 PM MST (11/25)
Length of Visible Light 10h 34m
Length of Day
9h 33m
Waning Gibbous, 50% of the Moon is Illuminated
Nov 25
Waning Gibbous
Nov 25
Last Quarter
Dec 2
New
Dec 9
First Quarter
Dec 17
Full

Hourly Weather History & Observations

Time (MST) Temp. Windchill Dew Point Humidity Pressure Visibility Wind Dir Wind Speed Gust Speed Precip Events Conditions
12:53 AM 24.1 °F 15.2 °F 17.1 °F 75% 30.24 in 10.0 mi South 8.1 mph - N/A   Clear
1:53 AM 23.0 °F 15.8 °F 16.0 °F 74% 30.25 in 10.0 mi SSW 5.8 mph - N/A   Clear
2:53 AM 23.0 °F 15.8 °F 16.0 °F 74% 30.24 in 10.0 mi SSW 5.8 mph - N/A   Clear
3:53 AM 23.0 °F 14.7 °F 16.0 °F 74% 30.23 in 10.0 mi SSW 6.9 mph - N/A   Clear
4:53 AM 21.9 °F 14.5 °F 15.1 °F 75% 30.28 in 10.0 mi SSW 5.8 mph - N/A   Mostly Cloudy
5:53 AM 23.0 °F 17.0 °F 15.1 °F 72% 30.31 in 10.0 mi SSW 4.6 mph - N/A   Clear
6:53 AM 21.9 °F 14.5 °F 15.1 °F 75% 30.33 in 10.0 mi SSW 5.8 mph - N/A   Clear
7:53 AM 21.9 °F 17.2 °F 15.1 °F 75% 30.37 in 10.0 mi SW 3.5 mph - N/A   Clear
8:53 AM 26.1 °F 20.5 °F 17.1 °F 69% 30.38 in 10.0 mi SSW 4.6 mph - N/A   Clear
9:53 AM 28.9 °F 23.9 °F 17.1 °F 61% 30.39 in 10.0 mi SW 4.6 mph - N/A   Clear
10:53 AM 34.0 °F 27.2 °F 16.0 °F 48% 30.37 in 10.0 mi SW 8.1 mph - N/A   Clear
11:53 AM 37.0 °F 34.5 °F 16.0 °F 42% 30.34 in 10.0 mi WSW 3.5 mph - N/A   Clear
12:53 PM 42.1 °F 37.7 °F 15.1 °F 34% 30.31 in 10.0 mi Variable 6.9 mph - N/A   Clear
1:53 PM 43.0 °F 38.2 °F 14.0 °F 31% 30.30 in 10.0 mi NNE 8.1 mph - N/A   Clear
2:53 PM 43.0 °F 39.5 °F 16.0 °F 34% 30.31 in 10.0 mi North 5.8 mph - N/A   Clear
3:53 PM 42.1 °F 39.2 °F 18.0 °F 38% 30.32 in 10.0 mi North 4.6 mph - N/A   Clear
4:53 PM 36.0 °F 30.3 °F 18.0 °F 48% 30.38 in 10.0 mi NNW 6.9 mph - N/A   Clear
5:53 PM 32.0 °F 24.8 °F 17.1 °F 54% 30.40 in 10.0 mi NW 8.1 mph - N/A   Clear
6:53 PM 32.0 °F 27.5 °F 17.1 °F 54% 30.43 in 10.0 mi NNW 4.6 mph - N/A   Clear
7:53 PM 30.9 °F 26.2 °F 18.0 °F 59% 30.44 in 10.0 mi NW 4.6 mph - N/A   Clear
8:53 PM 30.9 °F 27.5 °F 17.1 °F 57% 30.44 in 10.0 mi SW 3.5 mph - N/A   Clear
9:53 PM 28.9 °F 23.9 °F 18.0 °F 64% 30.45 in 10.0 mi SSW 4.6 mph - N/A   Clear
10:53 PM 27.0 °F 20.5 °F 18.0 °F 69% 30.43 in 10.0 mi South 5.8 mph - N/A   Clear
11:53 PM 27.0 °F 21.6 °F 18.0 °F 69% 30.43 in 10.0 mi SW 4.6 mph - N/A   Clear